Location: Marysville Observatory
(48.1092°N, 122.1645°W)
Time: 15:32:42
(UTC-07:00)

Amateur Radio Satellites - All Passes

Search period start: 06 May 2016 15:02
Search period end: 07 May 2016 15:02
Location: Marysville Observatory, 48.1092°N, 122.1645°W

Satellite Date Start Highest point End Downlink Frequencies (MHz)
Time Altitude Azimuth
SWISSCUBE 06 May 15:05:01 15:09:36 44° 99° (E) 15:14:10 437.505
ITAMSAT 1 06 May 15:20:42 15:25:49 61° 258° (WSW) 15:30:58 435.822/435.867
HORYU 2 06 May 15:27:41 15:30:12 15° 58° (ENE) 15:32:42 437.375
BEESAT 06 May 15:37:37 15:42:25 81° 105° (ESE) 15:47:11 436.000
PCSat 06 May 15:49:39 15:55:05 88° 126° (SE) 16:00:34 145.827
AO-7 06 May 15:49:49 15:58:08 87° 250° (WSW) 16:06:30 29.400- 29.500
DANDE 06 May 15:52:23 15:55:39 64° 97° (E) 15:59:57 436.750
O/OREOS (USA 219) 06 May 16:00:10 16:04:09 28° 307° (NW) 16:08:09 437.305
Gurwin Techsat 1B 06 May 16:04:09 16:06:46 14° 273° (W) 16:09:24 435.225
CUSAT 1 06 May 16:12:50 16:16:40 35° 294° (WNW) 16:21:40 437.405
NOAA 15 06 May 16:13:11 16:14:47 11° 50° (NE) 16:16:25 137.62
SO-50 06 May 16:15:40 16:19:27 24° 246° (WSW) 16:23:06 436.795
TISAT 1 06 May 16:17:31 16:17:35 10° 305° (NW) 16:17:37 437.305
Cubesat XI-IV 06 May 16:30:57 16:32:20 11° 50° (NE) 16:33:42 437.490
NOAA 18 06 May 16:32:17 16:35:28 16° 53° (NE) 16:38:39 137.9125
KKS-1 06 May 16:33:14 16:37:30 42° 99° (E) 16:41:43 437.445
AO-85 06 May 16:35:10 16:37:19 12° 355° (N) 16:39:25 145.980
ITUPSAT 1 06 May 16:35:58 16:40:13 33° 295° (WNW) 16:44:27 437.325
STARS 06 May 16:38:30 16:42:13 26° 95° (E) 16:45:54 437.465
SWISSCUBE 06 May 16:43:16 16:47:12 26° 297° (WNW) 16:51:07 437.505
Cosmos 2491 06 May 16:45:19 16:53:18 36° 65° (ENE) 17:01:11 435.465 / 435.565
HORYU 2 06 May 17:01:43 17:06:11 78° 257° (WSW) 17:10:40 437.375
YUBILEINY 06 May 17:04:35 17:08:58 15° 71° (ENE) 17:13:22 435.215
MOZHAYETS 4 06 May 17:07:27 17:12:01 64° 101° (ESE) 17:16:34
BEESAT 06 May 17:16:46 17:19:36 16° 303° (WNW) 17:22:26 436.000
AUBIESAT-1 06 May 17:20:37 17:21:37 11° 49° (NE) 17:22:36 437.475
CUTE-I 06 May 17:21:23 17:25:45 26° 61° (ENE) 17:30:07 437.470
BRITE-PL 06 May 17:24:13 17:28:21 25° 61° (ENE) 17:32:46 437.365/2234.400
CUBESAT XI-V 06 May 17:28:37 17:31:17 15° 88° (E) 17:33:57 437.345
BEESAT 3 06 May 17:29:53 17:33:05 24° 116° (ESE) 17:36:18 437.485
PCSat 06 May 17:34:53 17:39:12 23° 325° (NW) 17:43:33 145.827
DANDE 06 May 17:37:59 17:39:29 12° 307° (NW) 17:41:06 436.750
HO-68 06 May 17:39:27 17:41:44 12° 39° (NE) 17:44:01 435.675
BEESAT 2 06 May 17:45:52 17:48:55 21° 115° (ESE) 17:51:59 435.950
AO-7 06 May 17:46:12 17:52:05 21° 271° (W) 17:58:00 29.400- 29.500
NOAA 15 06 May 17:48:21 17:53:31 60° 70° (ENE) 17:58:46 137.62
DOVE 4 06 May 17:49:47 17:52:18 14° 54° (NE) 17:54:49 437.250
LilacSat-2 06 May 17:56:20 17:59:52 34° 69° (ENE) 18:03:23 437.200
Cubesat XI-IV 06 May 18:06:07 18:11:20 58° 70° (ENE) 18:16:34 437.490
NOAA 18 06 May 18:09:48 18:15:19 81° 73° (ENE) 18:20:51 137.9125
KKS-1 06 May 18:10:14 18:13:52 25° 297° (WNW) 18:17:28 437.445
GOMX 1 06 May 18:12:56 18:17:38 35° 65° (ENE) 18:22:32 467.674
STARS 06 May 18:14:36 18:18:40 37° 293° (WNW) 18:22:42 437.465
AO-85 06 May 18:16:47 18:19:56 16° 20° (NNE) 18:22:57 145.980
M-CUBED/EXP-1 PRIME 06 May 18:36:00 18:40:34 53° 66° (ENE) 18:44:59 437.505
Cosmos 2491 06 May 18:42:02 18:50:41 62° 268° (W) 18:59:14 435.465 / 435.565
MOZHAYETS 4 06 May 18:45:41 18:48:45 18° 300° (WNW) 18:51:48
AUBIESAT-1 06 May 18:50:46 18:55:20 61° 67° (ENE) 18:59:43 437.475
CUTE 1.7 + AOD 2 06 May 18:53:03 18:54:37 12° 58° (ENE) 18:56:11 437.475
YUBILEINY 06 May 18:55:25 19:04:02 68° 94° (E) 19:12:39 435.215
STRAND 1 06 May 18:56:27 18:57:19 10° 85° (E) 18:58:13 437.568
CUTE-I 06 May 19:00:20 19:05:31 53° 260° (W) 19:10:43 437.470
BRITE-PL 06 May 19:01:30 19:06:26 55° 261° (W) 19:11:48 437.365/2234.400
CUBESAT XI-V 06 May 19:04:29 19:09:12 73° 287° (WNW) 19:13:54 437.345
BEESAT 3 06 May 19:06:49 19:10:36 43° 315° (NW) 19:14:25 437.485
SEEDS 06 May 19:11:40 19:13:44 14° 59° (ENE) 19:15:47 437.485
HO-68 06 May 19:21:02 19:27:42 44° 61° (ENE) 19:34:22 435.675
BEESAT 2 06 May 19:22:37 19:26:29 48° 313° (NW) 19:30:24 435.950
PCSat 06 May 19:23:27 19:24:44 11° 350° (N) 19:26:02 145.827
DOVE 4 06 May 19:23:52 19:29:04 72° 73° (ENE) 19:34:23 437.250
NOAA 15 06 May 19:29:43 19:33:43 22° 269° (W) 19:37:45 137.62
LilacSat-2 06 May 19:31:13 19:34:16 22° 267° (W) 19:37:19 437.200
AAUSAT CUBESAT 2 06 May 19:33:15 19:35:15 13° 59° (ENE) 19:37:14 437.432
CINEMA 3 06 May 19:35:29 19:40:01 35° 67° (ENE) 19:44:30 145.822/145.860
Cosmos 2504 06 May 19:38:43 19:44:56 33° 85° (E) 19:51:09 435.465 / 435.565
UWE-3 06 May 19:39:44 19:40:34 10° 56° (NE) 19:41:21 435.000/436.395/437.385
Cubesat XI-IV 06 May 19:47:39 19:51:47 23° 268° (W) 19:55:56 437.490
GOMX 1 06 May 19:50:45 19:55:37 39° 265° (W) 20:00:44 467.674
AIST 2 06 May 19:53:14 19:56:55 32° 118° (ESE) 20:00:39 435.215
NOAA 18 06 May 19:53:14 19:56:39 17° 271° (W) 20:00:05 137.9125
CANX-2 06 May 19:53:51 19:57:54 49° 71° (ENE) 20:01:59 2200.000
CUBEBUG 2 06 May 19:53:54 19:57:13 20° 62° (ENE) 20:00:29 437.445
AO-85 06 May 19:56:54 20:01:42 47° 43° (NE) 20:06:05 145.980
ZACube-1 06 May 19:59:44 20:00:59 11° 57° (ENE) 20:02:13 437.345
M-CUBED/EXP-1 PRIME 06 May 20:11:44 20:15:20 22° 262° (W) 20:18:52 437.505
CUTE 1.7 + AOD 2 06 May 20:25:36 20:29:49 89° 249° (WSW) 20:34:03 437.475
AUBIESAT-1 06 May 20:26:55 20:30:06 18° 263° (W) 20:33:14 437.475
Oscar 11 06 May 20:30:26 20:33:47 22° 64° (ENE) 20:37:09 145.826/435.025
STRAND 1 06 May 20:32:15 20:37:24 74° 104° (ESE) 20:42:31 437.568
COMPASS 1 06 May 20:39:44 20:43:51 71° 74° (ENE) 20:47:58 437.405
RS-15 06 May 20:39:51 20:49:46 38° 107° (ESE) 21:00:10 29.354- 29.394
Cosmos 2491 06 May 20:41:56 20:45:33 13° 291° (WNW) 20:49:10 435.465 / 435.565
CUBESAT XI-V 06 May 20:44:14 20:45:46 11° 305° (NW) 20:47:18 437.345
SEEDS 06 May 20:44:43 20:48:53 76° 258° (WSW) 20:53:04 437.485
BEESAT 3 06 May 20:47:52 20:49:19 12° 337° (NNW) 20:50:46 437.485
FUNcube-1 06 May 20:48:06 20:51:54 28° 66° (ENE) 20:55:37 145.935
YUBILEINY 06 May 20:53:59 21:01:34 32° 296° (WNW) 21:09:12 435.215
BEESAT 2 06 May 21:03:30 21:05:18 13° 335° (NNW) 21:07:05 435.950
DOVE 4 06 May 21:03:44 21:07:17 18° 272° (W) 21:10:55 437.250
AAUSAT CUBESAT 2 06 May 21:06:05 21:10:11 75° 257° (WSW) 21:14:19 437.432
PCSat 06 May 21:08:27 21:10:46 13° 17° (NNE) 21:13:04 145.827
HO-68 06 May 21:08:37 21:15:24 45° 261° (W) 21:22:14 435.675
UWE-3 06 May 21:11:40 21:16:14 70° 74° (ENE) 21:20:43 435.000/436.395/437.385
CINEMA 3 06 May 21:12:33 21:17:07 35° 265° (W) 21:21:40 145.822/145.860
CUBEBUG 2 06 May 21:28:48 21:33:27 59° 259° (W) 21:38:01 437.445
Cosmos 2504 06 May 21:31:01 21:38:00 52° 286° (WNW) 21:45:02 435.465 / 435.565
CANX-2 06 May 21:31:08 21:34:02 18° 269° (W) 21:36:59 2200.000
AIST 2 06 May 21:31:32 21:35:23 36° 317° (NW) 21:39:15 435.215
ZACube-1 06 May 21:32:04 21:36:33 78° 74° (ENE) 21:40:57 437.345
AO-85 06 May 21:37:51 21:41:59 29° 245° (WSW) 21:45:47 145.980
PRISM 06 May 21:40:35 21:44:47 82° 104° (ESE) 21:48:58 437.425
DELFI C3 06 May 21:42:27 21:46:18 56° 73° (ENE) 21:50:11 145.870
HUMSAT D 06 May 21:56:14 22:00:06 38° 69° (ENE) 22:03:57 437.325/437.525
Oscar 11 06 May 22:05:35 22:09:41 43° 262° (W) 22:13:49 145.826/435.025
VELOX 1 06 May 22:08:55 22:09:59 11° 54° (NE) 22:11:03 145.980
STRAND 1 06 May 22:12:32 22:16:02 19° 302° (WNW) 22:19:31 437.568
COMPASS 1 06 May 22:18:12 22:19:55 12° 272° (W) 22:21:38 437.405
FUNcube-1 06 May 22:23:57 22:28:03 35° 263° (W) 22:32:05 145.935
ANTELSAT 06 May 22:37:07 22:40:03 18° 91° (E) 22:42:57 437.575/2403.000
AISAT 06 May 22:39:03 22:42:22 21° 62° (ENE) 22:45:43 437.250
O/OREOS (USA 219) 06 May 22:47:48 22:51:22 22° 49° (NE) 22:54:52 437.305
GONETS M04 06 May 22:49:05 22:54:08 17° 72° (ENE) 22:59:11
RS-15 06 May 22:49:48 23:01:15 77° 312° (NW) 23:13:26 29.354- 29.394
UWE-3 06 May 22:50:34 22:53:09 15° 271° (W) 22:55:42 435.000/436.395/437.385
PCSat 06 May 22:51:01 22:55:56 33° 42° (NE) 23:00:48 145.827
CUBEBUG 1 06 May 23:02:08 23:05:59 30° 66° (ENE) 23:09:52 437.445
ZACube-1 06 May 23:11:20 23:13:21 13° 272° (W) 23:15:22 437.345
AIST 2 06 May 23:13:45 23:15:03 11° 340° (NNW) 23:16:21 435.215
ESTCUBE 1 06 May 23:15:16 23:19:38 55° 71° (ENE) 23:24:02 437.505/2401.250
PRISM 06 May 23:17:36 23:19:31 13° 302° (WNW) 23:21:26 437.425
DELFI C3 06 May 23:19:23 23:21:33 14° 270° (W) 23:23:43 145.870
CUSAT 1 06 May 23:19:45 23:21:17 11° 48° (NE) 23:22:51 437.405
UKube-1 06 May 23:20:18 23:24:13 34° 67° (ENE) 23:28:10 .
QB50P1 06 May 23:21:43 23:22:26 10° 87° (E) 23:23:08 145.935-145.965
DX 1 06 May 23:22:15 23:26:23 43° 69° (ENE) 23:30:34 434.975-435.025
UNISAT 6 06 May 23:30:42 23:35:00 61° 101° (E) 23:39:12 437.425
50 SAT 06 May 23:31:05 23:34:41 62° 73° (ENE) 23:38:18 437.505
Cosmos 2504 06 May 23:31:45 23:33:29 11° 312° (NW) 23:35:13 435.465 / 435.565
HUMSAT D 06 May 23:32:31 23:35:51 23° 267° (W) 23:39:11 437.325/437.525
Cosmos 2499 06 May 23:34:47 23:37:56 13° 73° (ENE) 23:41:06 435.465 / 435.565
VELOX 1 06 May 23:41:13 23:45:39 73° 73° (ENE) 23:50:08 145.980
SPROUT 06 May 23:41:39 23:45:24 30° 66° (ENE) 23:49:11 437.525
TIGRISAT 06 May 23:46:35 23:50:56 83° 104° (ESE) 23:55:11 435.000
NANOSAT C BR1 06 May 23:51:46 23:54:59 21° 92° (E) 23:58:10 145.865
TISAT 1 06 May 23:59:34 00:02:14 16° 60° (ENE) 00:04:54 437.305
AIST 1 07 May 00:03:03 00:07:06 40° 92° (E) 00:11:13
BEESAT 3 07 May 00:06:43 00:08:27 12° 25° (NNE) 00:10:12 437.485
ANTELSAT 07 May 00:12:55 00:17:07 51° 289° (WNW) 00:21:14 437.575/2403.000
AISAT 07 May 00:14:10 00:18:31 52° 260° (W) 00:22:56 437.250
JAS-2 07 May 00:17:25 00:20:50 13° 79° (E) 00:24:14 435.910
BEESAT 2 07 May 00:23:09 00:24:45 12° 24° (NNE) 00:26:20 435.950
O/OREOS (USA 219) 07 May 00:26:41 00:31:07 56° 250° (WSW) 00:35:30 437.305
PCSat 07 May 00:34:18 00:39:36 54° 243° (WSW) 00:44:51 145.827
CUBEBUG 1 07 May 00:38:16 00:42:13 32° 264° (W) 00:46:14 437.445
GONETS M04 07 May 00:40:33 00:49:20 74° 95° (E) 00:58:09
SWISSCUBE 07 May 00:40:40 00:42:32 12° 54° (NE) 00:44:24 437.505
DUCHIFAT 1 07 May 00:41:15 00:45:27 63° 101° (ESE) 00:49:36 145.980
DANDE 07 May 00:42:00 00:46:41 19° 60° (ENE) 00:51:57 436.750
QB50P2 07 May 00:48:17 00:52:33 85° 102° (ESE) 00:56:46 145.880/145.840
POLYITAN 1 07 May 00:50:30 00:54:46 87° 104° (ESE) 00:58:59 437.675
POPSAT HIP 1 07 May 00:51:48 00:56:04 87° 98° (E) 01:00:17 437.405
ESTCUBE 1 07 May 00:53:41 00:56:48 18° 269° (W) 00:59:55 437.505/2401.250
QB50P1 07 May 00:54:34 00:58:51 87° 283° (WNW) 01:03:03 145.935-145.965
UKube-1 07 May 00:56:38 01:00:20 27° 265° (W) 01:04:03 .
CUSAT 1 07 May 00:58:24 01:05:21 42° 69° (ENE) 01:12:52 437.405
DX 1 07 May 00:59:21 01:02:47 22° 267° (W) 01:06:14 434.975-435.025
BUGSAT 1 07 May 01:03:25 01:07:33 53° 100° (E) 01:11:35 437.445
RS-15 07 May 01:05:09 01:15:58 40° 343° (NNW) 01:27:15 29.354- 29.394
50 SAT 07 May 01:07:49 01:08:53 11° 271° (W) 01:09:57 437.505
UNISAT 6 07 May 01:08:30 01:11:17 17° 300° (WNW) 01:14:01 437.425
BEESAT 07 May 01:11:23 01:14:49 20° 60° (ENE) 01:18:17 436.000
SPROUT 07 May 01:17:28 01:21:20 31° 264° (W) 01:25:13 437.525
VELOX 1 07 May 01:20:23 01:22:40 14° 272° (W) 01:24:56 145.980
Cosmos 2499 07 May 01:22:36 01:29:36 74° 95° (E) 01:36:48 435.465 / 435.565
TIGRISAT 07 May 01:25:01 01:27:00 13° 303° (WNW) 01:28:56 435.000
NANOSAT C BR1 07 May 01:26:55 01:30:55 42° 291° (WNW) 01:34:53 145.865
TISAT 1 07 May 01:33:13 01:37:27 63° 259° (W) 01:41:42 437.305
AIST 1 07 May 01:41:28 01:44:54 22° 291° (WNW) 01:48:21
BEESAT 3 07 May 01:43:14 01:47:06 48° 46° (NE) 01:50:56 437.485
JAS-2 07 May 01:59:37 02:07:23 61° 100° (E) 02:15:02 435.910
BEESAT 2 07 May 01:59:45 02:03:36 44° 45° (NE) 02:07:26 435.950
Oscar 19 07 May 02:00:56 02:05:36 32° 95° (E) 02:10:13 437.125/150
ITUPSAT 1 07 May 02:08:03 02:12:43 59° 71° (ENE) 02:17:25 437.325
SWISSCUBE 07 May 02:14:47 02:19:32 76° 73° (ENE) 02:24:18 437.505
DUCHIFAT 1 07 May 02:18:06 02:20:42 16° 300° (WNW) 02:23:17 145.980
DANDE 07 May 02:23:33 02:30:22 76° 78° (ENE) 02:38:34 436.750
QB50P2 07 May 02:25:54 02:27:43 13° 303° (WNW) 02:29:33 145.880/145.840
POLYITAN 1 07 May 02:28:11 02:29:57 12° 303° (WNW) 02:31:41 437.675
POPSAT HIP 1 07 May 02:29:28 02:31:13 12° 303° (WNW) 02:32:58 437.405
QB50P1 07 May 02:32:29 02:33:56 12° 303° (WNW) 02:35:22 145.935-145.965
AIST 2 07 May 02:33:13 02:35:48 16° 29° (NNE) 02:38:22 435.215
Gurwin Techsat 1B 07 May 02:33:41 02:38:13 28° 94° (E) 02:42:44 435.225
MOZHAYETS 4 07 May 02:38:30 02:40:39 13° 57° (ENE) 02:42:48
GONETS M04 07 May 02:39:30 02:47:03 30° 298° (WNW) 02:54:37
BUGSAT 1 07 May 02:39:41 02:42:32 18° 299° (WNW) 02:45:22 437.445
CUSAT 1 07 May 02:40:28 02:47:39 53° 266° (W) 02:55:25 437.405
BEESAT 07 May 02:47:31 02:52:12 60° 258° (WSW) 02:56:56 436.000
YUBILEINY 07 May 03:08:47 03:09:18 10° 40° (NE) 03:09:50 435.215
Cosmos 2499 07 May 03:18:00 03:23:33 24° 299° (WNW) 03:29:16 435.465 / 435.565
RS-15 07 May 03:21:20 03:32:25 39° 17° (NNE) 03:43:45 29.354- 29.394
BEESAT 3 07 May 03:21:31 03:24:31 21° 245° (WSW) 03:27:31 437.485
ITAMSAT 1 07 May 03:29:55 03:34:41 36° 97° (E) 03:39:26 435.822/435.867
KKS-1 07 May 03:34:23 03:38:48 60° 71° (ENE) 03:43:14 437.445
BEESAT 2 07 May 03:38:02 03:41:15 24° 244° (WSW) 03:44:27 435.950
STARS 07 May 03:38:16 03:42:20 37° 67° (ENE) 03:46:26 437.465
Oscar 19 07 May 03:40:10 03:44:59 39° 294° (WNW) 03:49:47 437.125/150
JAS-2 07 May 03:45:02 03:52:02 38° 299° (WNW) 03:59:02 435.910
ITUPSAT 1 07 May 03:47:39 03:50:58 19° 269° (W) 03:54:17 437.325
AO-7 07 May 03:48:02 03:54:41 25° 91° (E) 04:01:17 29.400- 29.500
SWISSCUBE 07 May 03:55:19 03:57:54 14° 272° (W) 04:00:29 437.505
DANDE 07 May 04:07:14 04:12:50 27° 273° (W) 04:19:13 436.750
AIST 2 07 May 04:10:54 04:15:02 68° 49° (NE) 04:19:10 435.215
MOZHAYETS 4 07 May 04:12:35 04:17:08 90° 115° (ESE) 04:21:45
Gurwin Techsat 1B 07 May 04:13:18 04:18:23 47° 292° (WNW) 04:23:27 435.225
CUSAT 1 07 May 04:26:01 04:28:25 12° 284° (WNW) 04:30:51 437.405
CUBESAT XI-V 07 May 04:35:08 04:38:40 22° 62° (ENE) 04:42:15 437.345
HORYU 2 07 May 04:50:18 04:52:56 15° 90° (E) 04:55:33 437.375
YUBILEINY 07 May 05:01:07 05:09:15 41° 68° (ENE) 05:17:22 435.215
ITAMSAT 1 07 May 05:09:27 05:14:09 36° 295° (WNW) 05:18:50 435.822/435.867
KKS-1 07 May 05:12:52 05:15:46 17° 270° (W) 05:18:41 437.445
STARS 07 May 05:15:00 05:18:46 27° 265° (W) 05:22:34 437.465
Cosmos 2504 07 May 05:25:32 05:30:10 17° 55° (NE) 05:34:58 435.465 / 435.565
ISS 07 May 05:33:11 05:34:43 13° 135° (SE) 05:36:16 145.825
JAS-2 07 May 05:33:18 05:34:58 11° 321° (NW) 05:36:38 435.910
RS-15 07 May 05:35:02 05:47:19 74° 47° (NE) 05:59:42 29.354- 29.394
AO-7 07 May 05:39:59 05:48:22 82° 291° (WNW) 05:56:43 29.400- 29.500
AIST 2 07 May 05:50:31 05:53:03 16° 248° (WSW) 05:55:35 435.215
Cosmos 2491 07 May 05:51:40 05:59:21 35° 83° (E) 06:07:03 435.465 / 435.565
MOZHAYETS 4 07 May 05:53:38 05:55:00 11° 274° (W) 05:56:22
NOAA 15 07 May 06:00:56 06:04:20 17° 89° (E) 06:07:43 137.62
CUBESAT XI-V 07 May 06:11:17 06:15:45 50° 261° (W) 06:20:17 437.345
STRAND 1 07 May 06:14:03 06:18:04 24° 61° (ENE) 06:22:06 437.568
Cubesat XI-IV 07 May 06:20:43 06:24:10 17° 89° (E) 06:27:36 437.490
HORYU 2 07 May 06:25:33 06:29:56 64° 288° (WNW) 06:34:18 437.375
NOAA 18 07 May 06:28:45 06:33:14 25° 93° (E) 06:37:39 137.9125
SO-50 07 May 06:31:46 06:36:30 49° 121° (ESE) 06:41:13 436.795
YUBILEINY 07 May 06:57:58 07:06:19 53° 271° (W) 07:14:39 435.215
LilacSat-2 07 May 07:00:20 07:03:45 30° 96° (E) 07:07:07 437.200
PRISM 07 May 07:01:02 07:02:37 12° 57° (ENE) 07:04:12 437.425
BRITE-PL 07 May 07:02:26 07:07:54 44° 96° (E) 07:13:11 437.365/2234.400
ISS 07 May 07:07:25 07:10:40 66° 152° (SSE) 07:13:55 145.825
CUTE-I 07 May 07:13:30 07:18:38 47° 99° (E) 07:23:46 437.470
Cosmos 2504 07 May 07:17:23 07:25:02 70° 78° (ENE) 07:33:13 435.465 / 435.565
DOVE 4 07 May 07:20:53 07:24:02 16° 87° (E) 07:27:05 437.250
AO-7 07 May 07:33:44 07:40:03 25° 314° (NW) 07:46:22 29.400- 29.500
NOAA 15 07 May 07:39:22 07:44:43 77° 288° (WNW) 07:50:01 137.62
Cosmos 2491 07 May 07:47:00 07:55:43 62° 285° (WNW) 08:04:31 435.465 / 435.565
M-CUBED/EXP-1 PRIME 07 May 07:47:56 07:50:37 18° 97° (E) 07:53:10 437.505
RS-15 07 May 07:48:06 07:59:09 42° 251° (WSW) 08:10:14 29.354- 29.394
GOMX 1 07 May 07:48:43 07:54:04 56° 99° (E) 07:59:07 467.674
STRAND 1 07 May 07:51:56 07:56:55 55° 259° (W) 08:01:57 437.568
Cubesat XI-IV 07 May 07:59:30 08:04:50 76° 287° (WNW) 08:10:09 437.490
AUBIESAT-1 07 May 08:01:56 08:04:50 21° 98° (E) 08:07:35 437.475
CUTE 1.7 + AOD 2 07 May 08:08:40 08:10:31 13° 88° (E) 08:12:22 437.475
NOAA 18 07 May 08:08:53 08:14:12 54° 292° (WNW) 08:19:29 137.9125
SO-50 07 May 08:12:40 08:17:11 34° 321° (NW) 08:21:40 436.795
SEEDS 07 May 08:26:21 08:28:38 14° 89° (E) 08:30:56 437.485
HO-68 07 May 08:32:04 08:38:19 31° 94° (E) 08:44:32 435.675
PRISM 07 May 08:33:13 08:37:18 86° 255° (WSW) 08:41:27 437.425
LilacSat-2 07 May 08:34:52 08:37:57 24° 294° (WNW) 08:41:00 437.200
BRITE-PL 07 May 08:41:07 08:46:12 34° 295° (WNW) 08:51:10 437.365/2234.400
ISS 07 May 08:44:05 08:47:15 46° 352° (N) 08:50:26 145.825
AAUSAT CUBESAT 2 07 May 08:46:15 08:48:21 14° 89° (E) 08:50:27 437.432
GONETS M04 07 May 08:52:42 08:55:03 11° 42° (NE) 08:57:23
CUTE-I 07 May 08:53:58 08:58:30 29° 298° (WNW) 09:03:01 437.470
DOVE 4 07 May 08:57:14 09:02:21 71° 286° (WNW) 09:07:07 437.250
UNISAT 6 07 May 08:59:14 09:01:03 12° 57° (ENE) 09:02:52 437.425
YUBILEINY 07 May 08:59:38 09:00:55 10° 293° (WNW) 09:02:11 435.215
CINEMA 3 07 May 09:03:35 09:08:02 46° 98° (E) 09:12:14 145.822/145.860
CANX-2 07 May 09:10:48 09:15:00 60° 100° (E) 09:19:12 2200.000
Cosmos 2504 07 May 09:11:39 09:17:49 27° 278° (W) 09:24:19 435.465 / 435.565
TIGRISAT 07 May 09:13:55 09:16:37 16° 60° (ENE) 09:19:19 435.000
CUBEBUG 2 07 May 09:16:54 09:20:13 21° 92° (E) 09:23:28 437.445
ZACube-1 07 May 09:19:26 09:20:27 11° 87° (E) 09:21:28 437.345
NOAA 15 07 May 09:20:53 09:23:39 14° 307° (NW) 09:26:24 137.62
M-CUBED/EXP-1 PRIME 07 May 09:21:47 09:25:27 40° 298° (WNW) 09:28:50 437.505
GOMX 1 07 May 09:27:22 09:31:45 25° 299° (WNW) 09:35:58 467.674
AUBIESAT-1 07 May 09:36:00 09:39:30 34° 298° (WNW) 09:42:46 437.475
ANTELSAT 07 May 09:38:55 09:42:44 27° 65° (ENE) 09:46:29 437.575/2403.000
Cubesat XI-IV 07 May 09:41:23 09:44:03 14° 307° (NW) 09:46:43 437.490
CUTE 1.7 + AOD 2 07 May 09:42:39 09:46:52 72° 286° (WNW) 09:51:05 437.475
Oscar 11 07 May 09:49:16 09:52:55 26° 94° (E) 09:56:32 145.826/435.025
Cosmos 2491 07 May 09:49:43 09:54:48 16° 311° (NW) 09:59:55 435.465 / 435.565
NOAA 18 07 May 09:52:30 09:53:42 11° 312° (NW) 09:54:54 137.9125
COMPASS 1 07 May 09:54:23 09:58:34 83° 101° (E) 10:02:45 437.405
PHONESAT 2.4 07 May 09:54:30 09:56:48 19° 172° (S) 09:59:06 2401.200-2431.200
SO-50 07 May 09:56:37 09:59:05 14° 344° (NNW) 10:01:33 436.795
SEEDS 07 May 10:00:36 10:04:45 63° 287° (WNW) 10:08:55 437.485
AIST 1 07 May 10:06:57 10:09:48 17° 65° (ENE) 10:12:39
FUNcube-1 07 May 10:08:14 10:12:01 32° 96° (E) 10:15:45 145.935
QB50P2 07 May 10:10:59 10:13:03 13° 58° (ENE) 10:15:07 145.880/145.840
POLYITAN 1 07 May 10:13:09 10:15:16 14° 58° (ENE) 10:17:23 437.675
POPSAT HIP 1 07 May 10:14:20 10:16:26 14° 58° (ENE) 10:18:34 437.405
QB50P1 07 May 10:16:48 10:19:07 14° 59° (ENE) 10:21:27 145.935-145.965
HO-68 07 May 10:19:26 10:26:27 61° 294° (WNW) 10:33:28 435.675
AAUSAT CUBESAT 2 07 May 10:20:09 10:24:17 65° 287° (WNW) 10:28:24 437.432
ISS 07 May 10:20:50 10:24:03 52° 12° (NNE) 10:27:16 145.825
UNISAT 6 07 May 10:32:28 10:37:05 83° 75° (ENE) 10:41:37 437.425
UWE-3 07 May 10:34:16 10:38:32 87° 284° (WNW) 10:42:41 435.000/436.395/437.385
DOVE 4 07 May 10:37:02 10:39:03 12° 307° (NW) 10:41:03 437.250
JAS-2 07 May 10:37:58 10:38:32 10° 38° (NE) 10:39:07 435.910
CINEMA 3 07 May 10:41:19 10:44:52 22° 298° (WNW) 10:48:17 145.822/145.860
GONETS M04 07 May 10:46:32 10:54:52 44° 69° (ENE) 11:03:04
NANOSAT C BR1 07 May 10:47:11 10:50:43 26° 65° (ENE) 10:54:15 145.865
CANX-2 07 May 10:47:46 10:50:27 17° 299° (WNW) 10:53:07 2200.000
TIGRISAT 07 May 10:48:12 10:52:48 74° 256° (WSW) 10:57:20 435.000
DELFI C3 07 May 10:51:16 10:55:13 57° 100° (E) 10:59:10 145.870
CUBEBUG 2 07 May 10:53:01 10:57:03 40° 291° (WNW) 11:00:59 437.445
ZACube-1 07 May 10:53:09 10:57:22 81° 285° (WNW) 11:01:30 437.345
Cosmos 2499 07 May 11:08:06 11:15:05 34° 67° (ENE) 11:22:29 435.465 / 435.565
HUMSAT D 07 May 11:11:21 11:15:15 42° 98° (E) 11:19:07 437.325/437.525
ANTELSAT 07 May 11:14:58 11:19:17 39° 262° (W) 11:23:33 437.575/2403.000
Oscar 11 07 May 11:25:11 11:29:06 35° 292° (WNW) 11:33:02 145.826/435.025
VELOX 1 07 May 11:30:23 11:31:26 11° 86° (E) 11:32:30 145.980
PHONESAT 2.4 07 May 11:30:47 11:33:02 18° 189° (S) 11:35:18 2401.200-2431.200
COMPASS 1 07 May 11:31:47 11:33:32 12° 302° (WNW) 11:35:18 437.405
DUCHIFAT 1 07 May 11:36:11 11:40:26 73° 74° (ENE) 11:44:43 145.980
SO-50 07 May 11:39:50 11:41:41 12° 9° (N) 11:43:31 436.795
AIST 1 07 May 11:43:29 11:47:51 59° 264° (W) 11:52:10
QB50P2 07 May 11:43:58 11:48:16 82° 258° (WSW) 11:52:34 145.880/145.840
FUNcube-1 07 May 11:44:41 11:48:12 26° 294° (WNW) 11:51:40 145.935
Oscar 19 07 May 11:45:52 11:47:50 12° 52° (NE) 11:49:48 437.125/150
POLYITAN 1 07 May 11:46:11 11:50:30 81° 256° (WSW) 11:54:49 437.675
POPSAT HIP 1 07 May 11:47:21 11:51:39 81° 256° (WSW) 11:55:57 437.405
QB50P1 07 May 11:50:04 11:54:22 75° 258° (WSW) 11:58:40 145.935-145.965
AO-85 07 May 11:53:41 11:58:50 45° 119° (ESE) 12:03:57 145.980
BUGSAT 1 07 May 11:56:06 12:00:18 60° 72° (ENE) 12:04:31 437.445
ISS 07 May 11:57:21 12:00:31 47° 212° (SSW) 12:03:41 145.825
AISAT 07 May 12:01:11 12:04:47 23° 93° (E) 12:08:20 437.250
HO-68 07 May 12:08:49 12:12:49 16° 315° (NW) 12:16:50 435.675
UNISAT 6 07 May 12:12:26 12:14:22 12° 272° (W) 12:16:18 437.425
UWE-3 07 May 12:12:59 12:14:17 11° 303° (WNW) 12:15:34 435.000/436.395/437.385
JAS-2 07 May 12:15:35 12:21:28 39° 61° (ENE) 12:28:02 435.910
NANOSAT C BR1 07 May 12:22:21 12:26:18 36° 262° (W) 12:30:18 145.865
Gurwin Techsat 1B 07 May 12:22:41 12:24:23 12° 51° (NE) 12:26:06 435.225
CUBEBUG 1 07 May 12:22:49 12:26:56 35° 97° (E) 12:31:00 437.445
DELFI C3 07 May 12:27:15 12:29:42 16° 298° (WNW) 12:32:09 145.870
50 SAT 07 May 12:30:56 12:34:31 48° 100° (E) 12:38:04 437.505
ZACube-1 07 May 12:32:13 12:32:55 10° 304° (NW) 12:33:36 437.345
UKube-1 07 May 12:39:27 12:43:31 37° 98° (E) 12:47:32 .
ESTCUBE 1 07 May 12:40:38 12:45:12 74° 103° (ESE) 12:49:44 437.505/2401.250
DX 1 07 May 12:42:42 12:47:00 48° 100° (E) 12:51:13 434.975-435.025
GONETS M04 07 May 12:43:32 12:51:48 49° 272° (W) 13:00:00
HUMSAT D 07 May 12:47:35 12:50:39 21° 296° (WNW) 12:53:42 437.325/437.525
SPROUT 07 May 12:59:30 13:03:26 34° 97° (E) 13:07:19 437.525
Cosmos 2499 07 May 13:00:58 13:08:36 60° 268° (W) 13:16:49 435.465 / 435.565
AO-7 07 May 13:03:14 13:07:37 16° 36° (NE) 13:11:59 29.400- 29.500
VELOX 1 07 May 13:04:05 13:08:36 89° 114° (ESE) 13:13:03 145.980
O/OREOS (USA 219) 07 May 13:06:58 13:07:58 11° 96° (E) 13:08:58 437.305
DUCHIFAT 1 07 May 13:14:44 13:16:39 13° 272° (W) 13:18:35 145.980
TISAT 1 07 May 13:14:45 13:17:19 16° 90° (E) 13:19:53 437.305
ITAMSAT 1 07 May 13:15:14 13:17:50 14° 53° (NE) 13:20:25 435.822/435.867
SO-50 07 May 13:19:52 13:23:52 25° 33° (NNE) 13:27:46 436.795
Oscar 19 07 May 13:21:04 13:26:11 66° 72° (ENE) 13:31:22 437.125/150
BUGSAT 1 07 May 13:33:30 13:36:04 15° 270° (W) 13:38:38 437.445
AO-85 07 May 13:34:18 13:39:28 41° 318° (NW) 13:44:29 145.980
AISAT 07 May 13:37:11 13:41:26 42° 291° (WNW) 13:45:39 437.250
PCSat 07 May 13:40:41 13:41:56 11° 101° (E) 13:43:11 145.827
Gurwin Techsat 1B 07 May 13:58:05 14:03:19 61° 70° (ENE) 14:08:34 435.225
CUBEBUG 1 07 May 13:59:19 14:03:07 28° 295° (WNW) 14:06:53 437.445
JAS-2 07 May 14:00:15 14:06:21 48° 264° (W) 14:13:16 435.910
50 SAT 07 May 14:05:43 14:07:57 16° 297° (WNW) 14:10:12 437.505
ITUPSAT 1 07 May 14:07:08 14:08:43 11° 87° (E) 14:10:17 437.325
CUSAT 1 07 May 14:08:02 14:11:10 20° 81° (E) 14:14:53 437.405
SWISSCUBE 07 May 14:12:41 14:15:24 15° 89° (E) 14:18:06 437.505
UKube-1 07 May 14:15:48 14:19:25 26° 296° (WNW) 14:23:01 .
ESTCUBE 1 07 May 14:18:44 14:21:28 16° 301° (WNW) 14:24:12 437.505/2401.250
DX 1 07 May 14:19:33 14:22:53 21° 298° (WNW) 14:26:11 434.975-435.025
SPROUT 07 May 14:35:38 14:39:18 27° 295° (WNW) 14:42:55 437.525
O/OREOS (USA 219) 07 May 14:41:59 14:46:35 85° 112° (ESE) 14:51:11 437.305
VELOX 1 07 May 14:42:17 14:44:24 13° 303° (WNW) 14:46:30 145.980
BEESAT 07 May 14:44:17 14:48:17 26° 94° (E) 14:52:17 436.000
TISAT 1 07 May 14:49:12 14:53:22 58° 289° (WNW) 14:57:29 437.305
ITAMSAT 1 07 May 14:51:19 14:56:28 78° 73° (ENE) 15:01:40 435.822/435.867
